Simultaneous Nadir Overpasses (SNOs) Predictions

Prediction of SNOs between GOES-17 and METOP-A Satellite Orbit:

Table of predicted SNOs for the next 14.0 days since TLE Epoch: 6/29/2020
Index Date Time (GOES-17) GOES-17 Lat,Lon METOP-A Lat,Lon Distance(km) Time Diff (sec)
1 06/30/2020 05:39:44 -0.02,-137.19 0.49,-134.85 267.43 80
2 07/01/2020 17:55:55 0.02,-137.20 0.53,-139.44 255.26 80
3 07/02/2020 17:37:56 0.02,-137.20 -0.59,-134.46 312.22 80
4 07/04/2020 05:56:55 -0.02,-137.19 -0.47,-139.08 215.81 80
5 07/05/2020 05:33:36 -0.02,-137.19 0.66,-134.10 351.12 80
6 07/06/2020 17:52:27 0.01,-137.18 0.36,-138.70 172.79 80
7 07/07/2020 17:34:28 0.01,-137.18 -0.76,-133.72 394.02 80
8 07/09/2020 05:53:27 -0.01,-137.16 -0.30,-138.34 134.54 80
9 07/10/2020 05:30:08 -0.01,-137.16 0.83,-133.36 432.15 80
10 07/11/2020 17:48:59 0.01,-137.15 0.19,-137.96 92.11 80
11 07/12/2020 17:30:59 0.01,-137.14 -0.94,-132.98 474.37 80
